Date String (YYYY-MM-DD hh:mm:ss) UTC,Instrument flags,Ambient pressure (hPa),Sample flow (lpm),Bypass flow (lpm),Sample temperature (°C),Ambient temperature (°C),ASC tube jacket temperature (°C),LED temperature (°C),Box temperature (°C),Sample RH (%),Span deviation,Mass concentration (μg/m³),Mass concentration (μg/m³),Mass concentration (μg/m³)
DateTimeUTC,F1_M11,P_M11,Q1_M11,Q2_M11,T1_M11,T2_M11,T3_M11,T4_M11,T5_M11,U1_M11,ZSPAN_M11,X0_M11,X2_M11,X1_M11
2022-01-24 11:00:00,,0821.0,5.00,0.00,22.4,21.6,00.0,31.5,24.1,08.8,0000.0,0000.68,0000.53,0000.48
2022-01-24 11:01:00,,0820.9,5.00,0.00,22.4,21.6,00.0,31.5,24.1,08.8,0000.0,0000.65,0000.52,0000.48
2022-01-24 11:02:00,,0821.0,5.00,0.00,22.4,21.6,00.0,31.5,24.0,08.6,0000.0,0000.71,0000.52,0000.48
2022-01-24 11:03:00,,0821.0,5.01,0.00,22.4,21.5,00.0,31.5,24.0,08.6,0000.0,0000.78,0000.55,0000.49
2022-01-24 11:04:00,,0821.0,4.99,0.00,22.4,21.5,00.0,31.5,24.0,08.7,0000.0,0000.81,0000.55,0000.49
2022-01-24 11:05:00,,0821.0,5.00,0.00,22.3,21.5,00.0,31.4,24.0,08.7,0000.0,0000.83,0000.56,0000.50
2022-01-24 11:06:00,,0821.0,5.00,0.00,22.3,21.5,00.0,31.4,23.9,08.6,0000.0,0000.82,0000.56,0000.49
2022-01-24 11:07:00,,0821.0,5.00,0.00,22.3,21.5,00.0,31.4,24.0,08.6,0000.0,0000.82,0000.56,0000.49
2022-01-24 11:08:00,,0821.0,5.00,0.00,22.4,22.0,00.0,31.5,24.2,08.5,0000.0,0000.84,0000.57,0000.50
2022-01-24 11:09:00,,0821.0,5.01,0.00,22.5,22.7,00.0,31.5,24.5,08.4,0000.0,0000.86,0000.58,0000.50
2022-01-24 11:10:00,,0821.0,5.00,0.00,22.6,23.0,00.0,31.5,24.6,08.3,0000.0,0000.84,0000.57,0000.50
2022-01-24 11:11:00,,0821.0,4.99,0.00,22.7,22.9,00.0,31.6,24.6,08.3,0000.0,0000.85,0000.58,0000.49
2022-01-24 11:12:00,,0821.0,5.00,0.00,22.7,22.7,00.0,31.6,24.6,08.3,0000.0,0000.84,0000.57,0000.49
2022-01-24 11:13:00,,0821.0,4.99,0.00,22.7,22.6,00.0,31.6,24.5,08.3,0000.0,0000.73,0000.55,0000.48
2022-01-24 11:14:00,,0821.0,5.01,0.00,22.7,22.4,00.0,31.6,24.5,08.3,0000.0,0000.65,0000.53,0000.47
2022-01-24 11:15:00,,0821.0,5.00,0.00,22.7,22.3,00.0,31.6,24.4,08.4,0000.0,0000.64,0000.54,0000.48
2022-01-24 11:16:00,,0821.0,4.99,0.00,22.6,22.2,00.0,31.6,24.4,08.3,0000.0,0000.69,0000.56,0000.47
2022-01-24 11:17:00,,0821.0,5.01,0.00,22.6,22.1,00.0,31.6,24.3,08.3,0000.0,0000.73,0000.57,0000.48
2022-01-24 11:18:00,,0821.0,5.00,0.00,22.6,22.0,00.0,31.6,24.3,08.3,0000.0,0000.73,0000.57,0000.47
2022-01-24 11:19:00,,0821.0,5.00,0.00,22.6,21.9,00.0,31.6,24.3,08.3,0000.0,0000.72,0000.57,0000.48
2022-01-24 11:20:00,,0821.0,5.00,0.00,22.6,21.9,00.0,31.6,24.3,08.3,0000.0,0000.72,0000.57,0000.48
2022-01-24 11:21:00,,0821.0,5.00,0.00,22.6,21.8,00.0,31.6,24.2,08.3,0000.0,0000.88,0000.60,0000.49
2022-01-24 11:22:00,,0821.0,5.00,0.00,22.5,21.8,00.0,31.6,24.2,08.4,0000.0,0000.91,0000.61,0000.49
2022-01-24 11:23:00,,0821.0,5.00,0.00,22.5,21.8,00.0,31.6,24.2,08.4,0000.0,0000.95,0000.63,0000.50
2022-01-24 11:24:00,,0821.0,5.01,0.00,22.5,21.8,00.0,31.6,24.2,08.4,0000.0,0000.95,0000.64,0000.51
2022-01-24 11:25:00,,0821.0,4.99,0.00,22.5,21.7,00.0,31.6,24.2,08.5,0000.0,0000.93,0000.63,0000.51
2022-01-24 11:26:00,,0821.0,5.00,0.00,22.5,21.7,00.0,31.6,24.1,08.5,0000.0,0000.89,0000.61,0000.50
2022-01-24 11:27:00,,0821.0,4.99,0.00,22.4,21.7,00.0,31.5,24.2,08.6,0000.0,0000.84,0000.58,0000.50
2022-01-24 11:28:00,,0821.0,5.00,0.00,22.4,21.7,00.0,31.5,24.1,08.7,0000.0,0000.80,0000.57,0000.50
2022-01-24 11:29:00,,0821.1,5.00,0.00,22.4,21.6,00.0,31.5,24.1,08.7,0000.0,0000.79,0000.57,0000.50
2022-01-24 11:30:00,,0821.1,5.00,0.00,22.4,21.6,00.0,31.5,24.1,08.6,0000.0,0000.82,0000.58,0000.50
2022-01-24 11:31:00,,0821.1,5.00,0.00,22.4,21.6,00.0,31.5,24.1,08.7,0000.0,0000.82,0000.58,0000.50
2022-01-24 11:32:00,,0821.1,5.00,0.00,22.4,21.6,00.0,31.5,24.1,08.7,0000.0,0000.92,0000.57,0000.51
2022-01-24 11:33:00,,0821.1,5.00,0.00,22.4,21.6,00.0,31.5,24.1,08.7,0000.0,0000.92,0000.56,0000.51
2022-01-24 11:34:00,,0821.1,4.99,0.00,22.4,21.6,00.0,31.5,24.1,08.9,0000.0,0000.92,0000.57,0000.50
2022-01-24 11:35:00,,0821.1,5.01,0.00,22.4,21.6,00.0,31.4,24.1,09.0,0000.0,0000.93,0000.57,0000.50
2022-01-24 11:36:00,,0821.1,5.01,0.00,22.3,21.6,00.0,31.4,24.0,08.9,0000.0,0000.94,0000.58,0000.51
2022-01-24 11:37:00,,0821.1,5.00,0.00,22.3,21.6,00.0,31.4,24.0,08.6,0000.0,0000.96,0000.59,0000.51
2022-01-24 11:38:00,,0821.2,5.00,0.00,22.4,21.8,00.0,31.4,24.1,08.5,0000.0,0000.99,0000.60,0000.51
2022-01-24 11:39:00,,0821.2,4.99,0.00,22.5,22.5,00.0,31.5,24.4,08.5,0000.0,0001.02,0000.61,0000.51
2022-01-24 11:40:00,,0821.1,5.00,0.00,22.6,23.1,00.0,31.5,24.6,08.3,0000.0,0001.05,0000.63,0000.52
2022-01-24 11:41:00,,0821.1,5.01,0.00,22.7,23.1,00.0,31.5,24.7,08.3,0000.0,0001.03,0000.61,0000.52
2022-01-24 11:42:00,,0821.1,4.99,0.00,22.7,22.9,00.0,31.5,24.6,08.4,0000.0,0001.01,0000.61,0000.52
2022-01-24 11:43:00,,0821.1,5.01,0.00,22.7,22.7,00.0,31.6,24.6,08.4,0000.0,0000.76,0000.60,0000.52
2022-01-24 11:44:00,,0821.2,5.00,0.00,22.7,22.5,00.0,31.6,24.5,08.3,0000.0,0000.72,0000.58,0000.51
2022-01-24 11:45:00,,0821.2,4.99,0.00,22.7,22.4,00.0,31.6,24.5,08.3,0000.0,0000.68,0000.55,0000.51
2022-01-24 11:46:00,,0821.2,5.00,0.00,22.7,22.3,00.0,31.6,24.4,08.4,0000.0,0000.69,0000.56,0000.51
2022-01-24 11:47:00,,0821.1,5.00,0.00,22.6,22.2,00.0,31.6,24.4,08.5,0000.0,0000.71,0000.57,0000.50
2022-01-24 11:48:00,,0821.1,5.01,0.00,22.6,22.1,00.0,31.6,24.4,08.5,0000.0,0000.71,0000.57,0000.51
2022-01-24 11:49:00,,0821.2,5.00,0.00,22.6,22.0,00.0,31.6,24.4,08.5,0000.0,0000.68,0000.57,0000.51
2022-01-24 11:50:00,,0821.1,5.00,0.00,22.6,22.0,00.0,31.6,24.3,08.4,0000.0,0000.67,0000.56,0000.52
2022-01-24 11:51:00,,0821.2,5.00,0.00,22.6,22.0,00.0,31.6,24.3,08.5,0000.0,0000.63,0000.55,0000.51
2022-01-24 11:52:00,,0821.2,5.01,0.00,22.6,21.9,00.0,31.6,24.3,08.6,0000.0,0000.62,0000.54,0000.51
2022-01-24 11:53:00,,0821.2,4.99,0.00,22.6,21.9,00.0,31.6,24.3,08.6,0000.0,0000.61,0000.53,0000.50
2022-01-24 11:54:00,,0821.2,5.00,0.00,22.5,21.9,00.0,31.6,24.3,08.5,0000.0,0000.62,0000.53,0000.50
2022-01-24 11:55:00,,0821.2,5.00,0.00,22.5,21.9,00.0,31.6,24.3,08.5,0000.0,0000.64,0000.54,0000.50
2022-01-24 11:56:00,,0821.2,5.00,0.00,22.5,21.8,00.0,31.6,24.2,08.5,0000.0,0000.67,0000.56,0000.50
2022-01-24 11:57:00,,0821.2,4.99,0.00,22.5,21.8,00.0,31.5,24.2,08.5,0000.0,0000.67,0000.56,0000.50
2022-01-24 11:58:00,,0821.2,5.00,0.00,22.5,21.8,00.0,31.5,24.3,08.4,0000.0,0000.64,0000.55,0000.50
2022-01-24 11:59:00,,0821.2,5.01,0.00,22.5,21.8,00.0,31.5,24.2,08.4,0000.0,0000.71,0000.55,0000.50
